Glidden, IA

9:44 AM CST on February 24, 2017 (GMT -0600)
Neu

Weather History for KCIN - May, 2014

Change the Weather History Date:

Wednesday, May 21, 2014

  Actual Average Record
Temperature  
Mean Temperature 70 °F -  
Max Temperature 80 °F 77 °F 93 °F (1972)
Min Temperature 59 °F 49 °F 35 °F (1963)
Cooling Degree Days 4    
Growing Degree Days 20 (Base 50)    
Moisture  
Dew Point 46 °F    
Average Humidity 48    
Maximum Humidity 77    
Minimum Humidity 23    
Precipitation  
Precipitation 0.00 in - - ()
Sea Level Pressure  
Sea Level Pressure 30.00 in    
Wind  
Wind Speed 11 mph (North)    
Max Wind Speed 22 mph    
Max Gust Speed 29 mph    
Visibility 10 miles    
Events      
Averages and records for this station are not official NWS values.
T = Trace of Precipitation, MM = Missing Value Source: NWS Daily Summary

Daily Weather History Graph

Daily Weather History Graph

Search for Another Location

Airport or City:

Trip Planner

Search our weather history database for the weather conditions in past years. The results will help you decide how hot, cold, wet, or windy it might be!

Date:

Astronomy

May. 21, 2014 Rise Set
Actual Time 5:53 AM CDT 8:39 PM CDT
Civil Twilight 5:20 AM CDT 9:11 PM CDT
Nautical Twilight 4:39 AM CDT 9:52 PM CDT
Astronomical Twilight 3:52 AM CDT 10:40 PM CDT
Moon 1:44 AM CDT (5/21) 1:13 PM CDT (5/21)
Length of Visible Light 15h 51m
Length of Day
14h 45m
Waning Gibbous, 48% of the Moon is Illuminated
May 21
Waning Gibbous
May 28
New
Jun 5
First Quarter
Jun 12
Full
Jun 19
Last Quarter

Hourly Weather History & Observations

Time (CDT) Temp. Dew Point Humidity Pressure Visibility Wind Dir Wind Speed Gust Speed Precip Events Conditions
12:15 AM 66.2 °F 55.4 °F 68% 29.88 in 10.0 mi NE 5.8 mph - N/A   Overcast
12:35 AM 64.4 °F 55.4 °F 73% 29.88 in 10.0 mi North 5.8 mph - N/A   Mostly Cloudy
12:55 AM 64.4 °F 53.6 °F 68% 29.87 in 10.0 mi North 8.1 mph - N/A   Mostly Cloudy
1:15 AM 64.4 °F 53.6 °F 68% 29.87 in 10.0 mi North 5.8 mph - N/A   Mostly Cloudy
1:35 AM 60.8 °F 51.8 °F 72% 29.88 in 10.0 mi North 5.8 mph - N/A   Scattered Clouds
1:55 AM 59.0 °F 51.8 °F 77% 29.88 in 10.0 mi NW 4.6 mph - N/A   Mostly Cloudy
2:15 AM 59.0 °F 51.8 °F 77% 29.88 in 10.0 mi NW 6.9 mph - N/A   Mostly Cloudy
2:35 AM 60.8 °F 50.0 °F 68% 29.88 in 10.0 mi NNW 6.9 mph - N/A   Overcast
2:55 AM 59.0 °F 50.0 °F 72% 29.89 in 10.0 mi NNW 9.2 mph - N/A   Mostly Cloudy
3:15 AM 60.8 °F 50.0 °F 68% 29.89 in 10.0 mi North 8.1 mph - N/A   Mostly Cloudy
3:35 AM 60.8 °F 50.0 °F 68% 29.89 in 10.0 mi North 10.4 mph - N/A   Overcast
3:55 AM 60.8 °F 50.0 °F 68% 29.89 in 10.0 mi North 9.2 mph - N/A   Mostly Cloudy
4:15 AM 59.0 °F 50.0 °F 72% 29.91 in 10.0 mi NNW 10.4 mph - N/A   Mostly Cloudy
4:35 AM 59.0 °F 48.2 °F 67% 29.92 in 10.0 mi NNW 8.1 mph - N/A   Overcast
4:55 AM 59.0 °F 48.2 °F 67% 29.93 in 10.0 mi NNW 8.1 mph - N/A   Overcast
5:15 AM 59.0 °F 48.2 °F 67% 29.93 in 10.0 mi North 12.7 mph - N/A   Mostly Cloudy
5:35 AM 59.0 °F 48.2 °F 67% 29.94 in 10.0 mi North 11.5 mph - N/A   Clear
5:55 AM 59.0 °F 48.2 °F 67% 29.94 in 10.0 mi North 16.1 mph - N/A   Clear
6:15 AM 59.0 °F 48.2 °F 67% 29.95 in 10.0 mi North 17.3 mph - N/A   Clear
6:35 AM 59.0 °F 48.2 °F 67% 29.95 in 10.0 mi North 18.4 mph - N/A   Clear
6:55 AM 59.0 °F 48.2 °F 67% 29.96 in 10.0 mi North 21.9 mph - N/A   Clear
7:15 AM 59.0 °F 46.4 °F 63% 29.97 in 10.0 mi NNE 17.3 mph 26.5 mph N/A   Clear
7:35 AM 59.0 °F 46.4 °F 63% 29.98 in 10.0 mi NNE 18.4 mph 28.8 mph N/A   Clear
7:55 AM 60.8 °F 46.4 °F 59% 29.99 in 10.0 mi NNE 17.3 mph 25.3 mph N/A   Clear
8:15 AM 60.8 °F 46.4 °F 59% 30.00 in 10.0 mi North 16.1 mph 24.2 mph N/A   Clear
8:35 AM 62.6 °F 44.6 °F 52% 30.01 in 10.0 mi North 20.7 mph - N/A   Clear
8:55 AM 64.4 °F 46.4 °F 52% 30.01 in 10.0 mi North 18.4 mph - N/A   Clear
9:15 AM 64.4 °F 46.4 °F 52% 30.02 in 10.0 mi North 16.1 mph 23.0 mph N/A   Clear
9:35 AM 66.2 °F 46.4 °F 49% 30.03 in 10.0 mi North 15.0 mph 21.9 mph N/A   Clear
9:55 AM 68.0 °F 46.4 °F 46% 30.03 in 10.0 mi North 20.7 mph - N/A   Clear
10:15 AM 69.8 °F 46.4 °F 43% 30.04 in 10.0 mi North 18.4 mph - N/A   Clear
10:35 AM 69.8 °F 46.4 °F 43% 30.04 in 10.0 mi North 17.3 mph - N/A   Clear
10:55 AM 71.6 °F 46.4 °F 41% 30.03 in 10.0 mi North 16.1 mph - N/A   Clear
11:15 AM 73.4 °F 46.4 °F 38% 30.03 in 9.0 mi North 18.4 mph 24.2 mph N/A   Clear
11:35 AM 75.2 °F 46.4 °F 36% 30.03 in 10.0 mi North 18.4 mph - N/A   Clear
11:55 AM 75.2 °F 46.4 °F 36% 30.03 in 10.0 mi North 17.3 mph 23.0 mph N/A   Clear
12:15 PM 75.2 °F 44.6 °F 34% 30.03 in 10.0 mi North 16.1 mph 21.9 mph N/A   Clear
12:35 PM 77.0 °F 44.6 °F 32% 30.03 in 10.0 mi North 16.1 mph 26.5 mph N/A   Clear
1:15 PM 78.8 °F 44.6 °F 30% 30.03 in 10.0 mi North 18.4 mph - N/A   Clear
1:35 PM 78.8 °F 44.6 °F 30% 30.04 in 10.0 mi NNW 13.8 mph 20.7 mph N/A   Clear
1:55 PM 78.8 °F 44.6 °F 30% 30.03 in 10.0 mi North 12.7 mph 20.7 mph N/A   Clear
2:35 PM 80.6 °F 44.6 °F 28% 30.02 in 10.0 mi North 10.4 mph 19.6 mph N/A   Clear
2:55 PM 80.6 °F 44.6 °F 28% 30.02 in 10.0 mi NNW 12.7 mph 21.9 mph N/A   Clear
3:15 PM 80.6 °F 42.8 °F 26% 30.02 in 10.0 mi North 15.0 mph 20.7 mph N/A   Clear
3:35 PM 80.6 °F 42.8 °F 26% 30.02 in 10.0 mi NNW 16.1 mph - N/A   Clear
3:55 PM 80.6 °F 42.8 °F 26% 30.02 in 10.0 mi North 17.3 mph - N/A   Clear
4:15 PM 80.6 °F 41.0 °F 24% 30.03 in 10.0 mi North 13.8 mph 23.0 mph N/A   Clear
4:35 PM 80.6 °F 41.0 °F 24% 30.02 in 10.0 mi North 15.0 mph 21.9 mph N/A   Clear
4:55 PM 80.6 °F 41.0 °F 24% 30.02 in 10.0 mi North 13.8 mph 24.2 mph N/A   Clear
5:15 PM 80.6 °F 39.2 °F 23% 30.02 in 10.0 mi North 10.4 mph 18.4 mph N/A   Clear
5:35 PM 80.6 °F 39.2 °F 23% 30.03 in 10.0 mi North 13.8 mph - N/A   Clear
5:55 PM 80.6 °F 39.2 °F 23% 30.03 in 10.0 mi North 16.1 mph - N/A   Clear
6:15 PM 78.8 °F 39.2 °F 24% 30.03 in 10.0 mi North 15.0 mph - N/A   Clear
6:35 PM 78.8 °F 39.2 °F 24% 30.03 in 10.0 mi North 13.8 mph 20.7 mph N/A   Clear
6:55 PM 77.0 °F 41.0 °F 28% 30.03 in 10.0 mi NNE 10.4 mph 17.3 mph N/A   Clear
7:15 PM 77.0 °F 41.0 °F 28% 30.03 in 10.0 mi North 13.8 mph - N/A   Clear
7:35 PM 75.2 °F 41.0 °F 29% 30.03 in 10.0 mi NNE 12.7 mph 19.6 mph N/A   Clear
7:55 PM 73.4 °F 41.0 °F 31% 30.04 in 10.0 mi NNE 13.8 mph - N/A   Clear
8:15 PM 71.6 °F 42.8 °F 35% 30.05 in - NNE 10.4 mph 17.3 mph N/A   Clear
8:35 PM 69.8 °F 42.8 °F 38% 30.06 in 10.0 mi NNE 13.8 mph - N/A   Clear
8:55 PM 68.0 °F 42.8 °F 40% 30.06 in 10.0 mi NNE 8.1 mph - N/A   Clear
9:15 PM 66.2 °F 42.8 °F 43% 30.06 in 10.0 mi NNE 9.2 mph - N/A   Clear
9:35 PM 64.4 °F 42.8 °F 45% 30.08 in 10.0 mi NNE 6.9 mph - N/A   Clear
9:55 PM 64.4 °F 42.8 °F 45% 30.09 in 10.0 mi NNE 6.9 mph - N/A   Clear
10:15 PM 62.6 °F 42.8 °F 48% 30.10 in 10.0 mi NNE 8.1 mph - N/A   Clear
10:35 PM 62.6 °F 42.8 °F 48% 30.11 in 10.0 mi North 8.1 mph - N/A   Clear
10:55 PM 62.6 °F 42.8 °F 48% 30.11 in 10.0 mi NNE 10.4 mph - N/A   Clear
11:15 PM 60.8 °F 42.8 °F 52% 30.10 in 10.0 mi NNE 8.1 mph - N/A   Clear
11:35 PM 60.8 °F 42.8 °F 52% 30.11 in 10.0 mi NNE 8.1 mph - N/A   Clear
11:55 PM 60.8 °F 42.8 °F 52% 30.11 in 10.0 mi NNE 9.2 mph - N/A   Clear